UUDD

Moscow/Domodedovo International Airport

Airport
ICAO code
UUDD
IATA Code
DME
Summary
ICAO Region
EUR
ICAO Territory
Location

Domodedovo, Moscow Oblast,

Serving
Moscow
Elevation
588 ft
Coordinates
55° 24' 31" N , 37° 54' 12" E
KCC
Metar
UUDD 221103Z 08003G09MPS 360V170 2800 0750S R32L/0750D +TSRA FEW006 BKN021CB 18/17 Q1010 R32L/290042 TEMPO 2500 -TSRA

Description

International airport serving Moscow, Russia.

Climatology

Humid Continental climate (Köppen climate classification Dfb) - Variable weather patterns and a large seasonal temperature variance. Summers are often warm and humid with frequent thunderstorms and winters can be very cold with frequent snowfall and persistent snow cover.

Runways

Designator Length Width Surface Rops
14C/32C 2600 45 CON Yes/Yes
14R/32L 3500 70 CON Yes/Yes
14L/32R 3794 53 CON Yes/Yes

Airport map

Aerial View

SKYbrary Partners:

Safety knowledge contributed by: